Flag Weather past 2 weeks in Iasi, Romania

Now
34 °F

Light rain. Passing clouds.


Feels Like: 30 °F
Forecast: 9 / 29 °F
Wind: 5 mph from Northwest

Location: Iasi Airport

Current Time: Nov 24, 2014 at 5:02:55 AM

Latest Report: Nov 24, 2014 at 4:00 AM


Visibility: 1 mi

Pressure: 30.45 "Hg

Humidity: 93%

Dew point: 32 °F

Location of IasiLocation

Historic Weather in Iasi — Graph

°F

Iasi temperature yesterday

Maximum temperature yesterday: 37 °F (at 12:00 PM)
Minimum temperature yesterday: 34 °F (at 12:00 AM)
Average temperature yesterday: 35 °F

Past Weeks' High & Low Weather Summary

 TemperatureHumidityPressure
High61 °F (Nov 9, 12:00 PM)100% (Nov 9, 3:00 AM)30.48 "Hg (Nov 9, 3:00 AM)
Low32 °F (Nov 21, 5:30 AM)52% (Nov 10, 3:00 PM)30.01 "Hg (Nov 20, 1:00 AM)
Average42 °F91%30.17 "Hg
* Reported Nov 9 3:00 AM — Nov 24 3:00 AM, Iasi, Weather by CustomWeather, © 2014

Note: Actual official high and low records may vary slightly from our data, if they occured in-between our weather recording intervals... More about our weather records

Advertising

Iasi weather history for previous 24 hours

 ConditionsComfort  
Time TempWeatherWind HumidityBarometerVisibility
3:00 AM
Nov 24
34 °FLight snow. Fog.7 mph93%30.45 "Hg2 mi
2:00 AM34 °FLight snow. Fog.5 mph93%30.45 "Hg3 mi
1:00 AM34 °FOvercast.5 mph93%30.45 "Hg4 mi
12:00 AM34 °FOvercast.5 mph93%30.48 "Hg5 mi
11:00 PM
Nov 23
36 °FPartly cloudy.5 mph87%30.48 "HgN/A
10:00 PM36 °FOvercast.2 mph87%30.48 "HgN/A
9:00 PM36 °FOvercast.5 mph87%30.45 "HgN/A
8:30 PM36 °FOvercast.5 mph87%30.45 "HgN/A
8:00 PM36 °FOvercast.5 mph87%30.45 "HgN/A
7:30 PM36 °FOvercast.2 mph87%30.45 "HgN/A
7:00 PM36 °FOvercast.2 mph87%30.45 "HgN/A
6:30 PM36 °FOvercast.5 mph87%30.45 "HgN/A
6:00 PM36 °FPassing clouds.5 mph87%30.45 "HgN/A
5:30 PM36 °FPassing clouds.5 mph87%30.45 "HgN/A
5:00 PM36 °FPartly cloudy.5 mph87%30.45 "HgN/A
4:30 PM36 °FPartly cloudy.5 mph87%30.45 "HgN/A
4:00 PM37 °FScattered clouds.7 mph81%30.42 "HgN/A
3:30 PM37 °FScattered clouds.7 mph81%30.42 "HgN/A
3:00 PM37 °FScattered clouds.7 mph81%30.42 "HgN/A
2:30 PM37 °FScattered clouds.7 mph81%30.42 "HgN/A
2:00 PM37 °FPartly sunny.5 mph87%30.45 "HgN/A
1:30 PM37 °FPartly sunny.7 mph87%30.45 "HgN/A
1:00 PM37 °FScattered clouds.5 mph87%30.45 "HgN/A
12:30 PM37 °FScattered clouds.7 mph81%30.45 "HgN/A
12:00 PM37 °FBroken clouds.5 mph81%30.45 "HgN/A
11:30 AM36 °FPartly sunny.5 mph87%30.45 "HgN/A
11:00 AM36 °FBroken clouds.5 mph87%30.45 "HgN/A
10:30 AM36 °FBroken clouds.2 mph87%30.45 "HgN/A
10:00 AM36 °FBroken clouds.2 mph93%30.45 "HgN/A
9:30 AM36 °FPartly sunny.5 mph93%30.42 "HgN/A
9:00 AM36 °FScattered clouds.2 mph93%30.42 "HgN/A
8:30 AM34 °FScattered clouds.5 mph93%30.42 "HgN/A
8:00 AM34 °FScattered clouds.2 mph93%30.42 "HgN/A
7:30 AM34 °FScattered clouds.2 mph93%30.42 "HgN/A
7:00 AM34 °FPassing clouds.2 mph93%30.42 "HgN/A
6:30 AM34 °FClear.2 mph93%30.39 "Hg10 mi
6:00 AM34 °FClear.2 mph93%30.39 "Hg10 mi
5:30 AM34 °FClear.No wind93%30.39 "Hg10 mi
Weather by CustomWeather, © 2014

See weather overviewHow to use our weather pages